QPF
0.00 0.01 0.02 0.03 0.09 0.16 0.23 0.28 0.31 0.27 0.28 0.34 0.37 0.37 0.31 0.27 0.23 0.19 0.18 0.19 0.17 0.22 0.32 0.31 0.31 0.35 0.35 0.29 0.27 0.28 0.28 0.24 0.25 0.23 0.15 0.11 0.08 0.08 0.10 0.10 0.12 0.15 0.15
0.01 0.01 0.02 0.03 0.05 0.08 0.14 0.21 0.20 0.18 0.18 0.24 0.30 0.29 0.24 0.16 0.14 0.15 0.17 0.21 0.25 0.29 0.38 0.42 0.42 0.43 0.40 0.36 0.34 0.33 0.29 0.23 0.23 0.23 0.22 0.14 0.09 0.06 0.07 0.10 0.15 0.20 0.21
0.03 0.03 0.03 0.02 0.01 0.02 0.03 0.04 0.05 0.08 0.09 0.11 0.13 0.16 0.17 0.13 0.11 0.13 0.16 0.19 0.27 0.32 0.40 0.46 0.46 0.43 0.42 0.39 0.34 0.32 0.26 0.20 0.20 0.21 0.22 0.16 0.10 0.08 0.11 0.17 0.23 0.33 0.33
0.06 0.03 0.01 0.01 0.00 0.00 0.01 0.01 0.02 0.03 0.04 0.04 0.05 0.07 0.08 0.09 0.13 0.18 0.17 0.15 0.18 0.21 0.26 0.30 0.35 0.37 0.40 0.36 0.30 0.28 0.23 0.21 0.17 0.19 0.20 0.19 0.15 0.14 0.13 0.16 0.22 0.29 0.33
0.04 0.01 0.00 0.00 0.00 0.00 0.00 0.01 0.01 0.01 0.01 0.01 0.02 0.02 0.04 0.06 0.08 0.12 0.11 0.09 0.09 0.11 0.15 0.20 0.24 0.26 0.26 0.24 0.24 0.25 0.24 0.20 0.17 0.20 0.24 0.26 0.23 0.20 0.17 0.12 0.13 0.17 0.25
0.01 0.00 0.00 0.00 0.00 0.00 0.00 0.00 0.00 0.00 0.00 0.00 0.00 0.01 0.01 0.02 0.03 0.05 0.06 0.07 0.08 0.09 0.11 0.14 0.16 0.19 0.22 0.23 0.25 0.27 0.25 0.23 0.24 0.25 0.25 0.24 0.23 0.21 0.21 0.18 0.13 0.11 0.12
0.00 0.00 0.00 0.00 0.00 0.00 0.00 0.00 0.00 0.00 0.00 0.00 0.00 0.00 0.00 0.01 0.01 0.01 0.03 0.04 0.06 0.06 0.07 0.10 0.13 0.16 0.19 0.23 0.25 0.24 0.25 0.26 0.27 0.26 0.26 0.25 0.25 0.24 0.22 0.21 0.17 0.12 0.08
0.00 0.00 0.00 0.00 0.00 0.00 0.00 0.00 0.00 0.00 0.00 0.00 0.00 0.00 0.00 0.00 0.00 0.01 0.01 0.02 0.03 0.04 0.05 0.07 0.10 0.14 0.19 0.23 0.25 0.24 0.23 0.25 0.27 0.27 0.27 0.26 0.27 0.26 0.24 0.22 0.19 0.15 0.10
0.00 0.00 0.00 0.00 0.00 0.00 0.00 0.00 0.00 0.00 0.00 0.00 0.00 0.00 0.00 0.00 0.00 0.00 0.01 0.01 0.02 0.04 0.07 0.09 0.11 0.13 0.18 0.22 0.23 0.24 0.23 0.24 0.25 0.24 0.24 0.24 0.26 0.26 0.24 0.20 0.16 0.12 0.09
0.00 0.00 0.00 0.00 0.00 0.00 0.00 0.00 0.00 0.00 0.00 0.00 0.00 0.00 0.00 0.00 0.00 0.00 0.01 0.02 0.03 0.06 0.11 0.15 0.17 0.18 0.19 0.21 0.24 0.25 0.25 0.23 0.21 0.22 0.22 0.22 0.24 0.22 0.19 0.15 0.12 0.09 0.07
0.00 0.00 0.00 0.00 0.00 0.00 0.00 0.00 0.00 0.00 0.00 0.00 0.00 0.00 0.00 0.00 0.00 0.01 0.01 0.02 0.05 0.08 0.12 0.17 0.20 0.20 0.19 0.19 0.21 0.22 0.23 0.22 0.22 0.22 0.21 0.20 0.20 0.18 0.14 0.11 0.09 0.06 0.04
0.00 0.00 0.00 0.00 0.00 0.00 0.00 0.00 0.00 0.00 0.00 0.00 0.00 0.00 0.00 0.00 0.00 0.02 0.02 0.03 0.06 0.07 0.10 0.13 0.17 0.20 0.21 0.19 0.23 0.28 0.27 0.24 0.24 0.23 0.20 0.17 0.16 0.14 0.11 0.09 0.06 0.04 0.02
0.00 0.00 0.00 0.00 0.00 0.00 0.00 0.00 0.00 0.00 0.00 0.00 0.00 0.00 0.00 0.00 0.00 0.01 0.02 0.02 0.04 0.07 0.10 0.13 0.16 0.18 0.22 0.26 0.27 0.29 0.35 0.37 0.32 0.29 0.24 0.18 0.14 0.10 0.07 0.04 0.03 0.02 0.01
0.00 0.00 0.00 0.00 0.00 0.00 0.00 0.00 0.00 0.00 0.00 0.00 0.00 0.01 0.00 0.00 0.01 0.02 0.02 0.03 0.05 0.09 0.13 0.13 0.19 0.24 0.23 0.28 0.35 0.35 0.38 0.36 0.31 0.27 0.21 0.15 0.10 0.07 0.04 0.02 0.01 0.01 0.00
0.00 0.00 0.00 0.00 0.00 0.00 0.00 0.00 0.00 0.00 0.00 0.00 0.00 0.00 0.01 0.01 0.01 0.02 0.07 0.06 0.05 0.11 0.19 0.16 0.15 0.20 0.25 0.28 0.30 0.31 0.30 0.27 0.23 0.19 0.13 0.09 0.06 0.04 0.02 0.01 0.01 0.00 0.00
0.00 0.00 0.00 0.00 0.00 0.00 0.00 0.00 0.00 0.00 0.01 0.00 0.00 0.00 0.01 0.01 0.02 0.01 0.02 0.02 0.04 0.09 0.14 0.12 0.10 0.13 0.18 0.22 0.21 0.19 0.17 0.14 0.12 0.11 0.09 0.05 0.03 0.02 0.01 0.00 0.00 0.00 0.00
0.00 0.00 0.00 0.00 0.00 0.00 0.00 0.00 0.01 0.01 0.01 0.01 0.01 0.01 0.01 0.02 0.02 0.01 0.01 0.02 0.05 0.08 0.11 0.11 0.10 0.11 0.12 0.13 0.14 0.15 0.13 0.10 0.07 0.05 0.04 0.03 0.02 0.01 0.00 0.00 0.00 0.00 0.00
0.00 0.00 0.00 0.00 0.00 0.00 0.00 0.01 0.01 0.01 0.01 0.02 0.02 0.02 0.02 0.02 0.02 0.01 0.01 0.02 0.04 0.08 0.12 0.09 0.09 0.10 0.09 0.08 0.08 0.09 0.07 0.06 0.04 0.02 0.01 0.01 0.01 0.00 0.00 0.00 0.00 0.00 0.00
0.00 0.00 0.00 0.00 0.00 0.00 0.01 0.01 0.02 0.02 0.02 0.03 0.04 0.04 0.02 0.02 0.01 0.01 0.01 0.01 0.02 0.04 0.08 0.08 0.07 0.08 0.09 0.07 0.05 0.05 0.05 0.04 0.03 0.01 0.01 0.00 0.00 0.00 0.00 0.00 0.00 0.00 0.00
0.00 0.00 0.00 0.00 0.01 0.01 0.01 0.02 0.03 0.04 0.05 0.06 0.06 0.05 0.03 0.03 0.03 0.02 0.02 0.01 0.01 0.02 0.03 0.04 0.05 0.05 0.06 0.05 0.03 0.02 0.02 0.02 0.01 0.00 0.00 0.00 0.00 0.00 0.00 0.00 0.00 0.00 0.00
0.01 0.01 0.01 0.01 0.01 0.02 0.04 0.05 0.07 0.09 0.10 0.10 0.09 0.07 0.05 0.04 0.04 0.03 0.03 0.02 0.02 0.01 0.01 0.02 0.02 0.03 0.04 0.03 0.02 0.01 0.01 0.02 0.01 0.00 0.00 0.00 0.00 0.00 0.00 0.00 0.00 0.00 0.00
0.00 0.01 0.01 0.01 0.02 0.03 0.06 0.10 0.12 0.13 0.15 0.15 0.15 0.12 0.09 0.06 0.04 0.03 0.03 0.03 0.02 0.01 0.01 0.01 0.00 0.01 0.01 0.01 0.01 0.01 0.01 0.01 0.01 0.00 0.00 0.00 0.00 0.00 0.00 0.00 0.00 0.00 0.00
0.01 0.01 0.01 0.02 0.04 0.06 0.12 0.19 0.21 0.21 0.20 0.20 0.19 0.16 0.12 0.10 0.08 0.05 0.04 0.03 0.01 0.01 0.01 0.01 0.00 0.00 0.00 0.00 0.01 0.01 0.00 0.00 0.00 0.00 0.00 0.00 0.00 0.00 0.00 0.00 0.00 0.00 0.00
0.01 0.02 0.02 0.03 0.05 0.10 0.19 0.28 0.29 0.28 0.27 0.25 0.22 0.19 0.16 0.12 0.10 0.08 0.06 0.03 0.01 0.01 0.01 0.01 0.00 0.00 0.00 0.00 0.00 0.00 0.00 0.00 0.00 0.00 0.00 0.00 0.00 0.00 0.00 0.00 0.00 0.00 0.00
0.01 0.01 0.02 0.02 0.04 0.07 0.15 0.29 0.36 0.39 0.39 0.35 0.28 0.23 0.18 0.14 0.11 0.10 0.09 0.05 0.02 0.01 0.01 0.01 0.00 0.00 0.00 0.00 0.00 0.00 0.00 0.00 0.00 0.00 0.00 0.00 0.00 0.00 0.00 0.00 0.00 0.00 0.00
0.01 0.01 0.02 0.02 0.05 0.08 0.13 0.23 0.37 0.45 0.46 0.44 0.38 0.29 0.22 0.16 0.12 0.09 0.07 0.05 0.03 0.01 0.00 0.00 0.00 0.00 0.00 0.00 0.00 0.00 0.00 0.00 0.00 0.00 0.00 0.00 0.00 0.00 0.00 0.00 0.00 0.00 0.00
MSLP
1010.16 1010.15 1010.09 1009.98 1009.86 1009.74 1009.68 1009.69 1009.79 1009.95 1010.16 1010.35 1010.50 1010.56 1010.49 1010.30 1009.98 1009.59 1009.17 1008.76 1008.41 1008.17 1008.05 1008.08 1008.23 1008.49 1008.84 1009.24 1009.67 1010.10 1010.49 1010.83 1011.10 1011.27 1011.35 1011.31 1011.16 1010.91 1010.59 1010.22 1009.84 1009.50 1009.22
1010.64 1010.63 1010.57 1010.45 1010.29 1010.14 1010.02 1009.98 1010.02 1010.15 1010.33 1010.50 1010.63 1010.65 1010.54 1010.29 1009.91 1009.44 1008.93 1008.44 1008.02 1007.72 1007.56 1007.54 1007.66 1007.88 1008.18 1008.54 1008.93 1009.32 1009.70 1010.06 1010.37 1010.61 1010.77 1010.83 1010.79 1010.63 1010.39 1010.07 1009.71 1009.36 1009.05
1010.92 1010.92 1010.87 1010.75 1010.59 1010.42 1010.28 1010.20 1010.21 1010.30 1010.44 1010.59 1010.69 1010.69 1010.56 1010.28 1009.87 1009.36 1008.82 1008.29 1007.83 1007.48 1007.26 1007.18 1007.22 1007.35 1007.56 1007.83 1008.13 1008.46 1008.80 1009.15 1009.49 1009.80 1010.06 1010.24 1010.32 1010.29 1010.15 1009.91 1009.61 1009.28 1008.96
1010.96 1010.96 1010.93 1010.84 1010.71 1010.55 1010.40 1010.30 1010.28 1010.34 1010.45 1010.57 1010.65 1010.65 1010.52 1010.26 1009.86 1009.37 1008.84 1008.31 1007.83 1007.44 1007.15 1006.97 1006.89 1006.90 1006.97 1007.10 1007.28 1007.51 1007.79 1008.13 1008.49 1008.87 1009.23 1009.54 1009.76 1009.87 1009.85 1009.72 1009.50 1009.22 1008.93
1010.78 1010.77 1010.76 1010.72 1010.62 1010.50 1010.37 1010.27 1010.24 1010.27 1010.35 1010.46 1010.53 1010.55 1010.45 1010.23 1009.89 1009.46 1008.97 1008.46 1007.97 1007.54 1007.16 1006.87 1006.64 1006.47 1006.37 1006.33 1006.36 1006.48 1006.70 1007.01 1007.40 1007.84 1008.30 1008.73 1009.09 1009.35 1009.47 1009.46 1009.35 1009.15 1008.91
1010.41 1010.40 1010.42 1010.42 1010.38 1010.30 1010.21 1010.13 1010.09 1010.11 1010.18 1010.28 1010.36 1010.41 1010.37 1010.22 1009.97 1009.61 1009.18 1008.71 1008.21 1007.71 1007.24 1006.79 1006.38 1006.02 1005.72 1005.50 1005.38 1005.39 1005.53 1005.82 1006.23 1006.74 1007.29 1007.84 1008.33 1008.73 1008.99 1009.11 1009.11 1009.01 1008.85
1009.96 1009.94 1009.98 1010.03 1010.05 1010.02 1009.97 1009.91 1009.88 1009.89 1009.96 1010.06 1010.17 1010.26 1010.29 1010.24 1010.08 1009.81 1009.44 1008.99 1008.47 1007.90 1007.30 1006.69 1006.09 1005.52 1005.01 1004.61 1004.34 1004.24 1004.32 1004.59 1005.03 1005.59 1006.23 1006.88 1007.49 1008.01 1008.39 1008.64 1008.77 1008.78 1008.72
1009.53 1009.50 1009.56 1009.64 1009.70 1009.72 1009.70 1009.66 1009.64 1009.65 1009.72 1009.84 1009.98 1010.13 1010.23 1010.27 1010.20 1010.02 1009.71 1009.27 1008.72 1008.06 1007.32 1006.54 1005.73 1004.96 1004.26 1003.69 1003.29 1003.09 1003.13 1003.39 1003.85 1004.46 1005.17 1005.90 1006.60 1007.22 1007.71 1008.08 1008.32 1008.46 1008.51
1009.22 1009.17 1009.24 1009.33 1009.41 1009.44 1009.43 1009.40 1009.38 1009.39 1009.47 1009.60 1009.78 1009.98 1010.16 1010.28 1010.31 1010.20 1009.93 1009.50 1008.91 1008.16 1007.29 1006.34 1005.36 1004.40 1003.54 1002.83 1002.32 1002.06 1002.06 1002.32 1002.80 1003.45 1004.19 1004.98 1005.74 1006.42 1007.00 1007.46 1007.81 1008.07 1008.25
1009.12 1009.05 1009.09 1009.16 1009.22 1009.23 1009.20 1009.15 1009.11 1009.11 1009.19 1009.33 1009.55 1009.80 1010.05 1010.25 1010.35 1010.30 1010.08 1009.66 1009.03 1008.22 1007.25 1006.17 1005.04 1003.95 1002.97 1002.16 1001.58 1001.28 1001.26 1001.52 1002.00 1002.66 1003.42 1004.22 1005.00 1005.72 1006.34 1006.87 1007.32 1007.68 1007.99
1009.30 1009.19 1009.17 1009.17 1009.15 1009.09 1009.00 1008.90 1008.82 1008.79 1008.85 1009.00 1009.24 1009.53 1009.84 1010.11 1010.29 1010.31 1010.14 1009.74 1009.12 1008.28 1007.25 1006.10 1004.90 1003.74 1002.69 1001.83 1001.22 1000.90 1000.87 1001.11 1001.58 1002.22 1002.96 1003.74 1004.50 1005.21 1005.85 1006.41 1006.92 1007.38 1007.80
1009.75 1009.57 1009.45 1009.34 1009.20 1009.04 1008.84 1008.65 1008.50 1008.42 1008.45 1008.58 1008.83 1009.15 1009.51 1009.84 1010.09 1010.19 1010.09 1009.76 1009.18 1008.37 1007.37 1006.22 1005.02 1003.86 1002.81 1001.95 1001.34 1001.01 1000.97 1001.20 1001.63 1002.23 1002.91 1003.62 1004.32 1004.99 1005.60 1006.17 1006.70 1007.22 1007.73
1010.43 1010.15 1009.90 1009.64 1009.36 1009.04 1008.72 1008.41 1008.16 1008.01 1007.98 1008.09 1008.32 1008.66 1009.05 1009.44 1009.76 1009.95 1009.95 1009.72 1009.25 1008.54 1007.63 1006.57 1005.45 1004.35 1003.36 1002.55 1001.97 1001.65 1001.60 1001.79 1002.17 1002.69 1003.28 1003.90 1004.51 1005.09 1005.65 1006.18 1006.71 1007.25 1007.81
1011.24 1010.86 1010.46 1010.03 1009.58 1009.10 1008.63 1008.19 1007.84 1007.59 1007.49 1007.55 1007.75 1008.07 1008.48 1008.92 1009.31 1009.59 1009.71 1009.62 1009.30 1008.76 1008.01 1007.11 1006.14 1005.18 1004.29 1003.57 1003.04 1002.74 1002.68 1002.83 1003.14 1003.56 1004.04 1004.54 1005.04 1005.52 1005.99 1006.46 1006.95 1007.48 1008.05
1012.09 1011.58 1011.03 1010.45 1009.83 1009.20 1008.59 1008.03 1007.56 1007.22 1007.03 1007.02 1007.16 1007.46 1007.86 1008.31 1008.76 1009.14 1009.39 1009.46 1009.33 1008.99 1008.46 1007.78 1007.01 1006.22 1005.48 1004.86 1004.41 1004.14 1004.06 1004.16 1004.38 1004.70 1005.07 1005.45 1005.83 1006.20 1006.57 1006.97 1007.40 1007.88 1008.42
1012.82 1012.21 1011.54 1010.82 1010.08 1009.33 1008.60 1007.94 1007.38 1006.94 1006.67 1006.56 1006.63 1006.86 1007.22 1007.67 1008.15 1008.60 1008.97 1009.21 1009.28 1009.16 1008.87 1008.43 1007.88 1007.30 1006.73 1006.24 1005.86 1005.62 1005.53 1005.58 1005.73 1005.95 1006.22 1006.49 1006.77 1007.04 1007.32 1007.63 1007.98 1008.39 1008.87
1013.34 1012.65 1011.89 1011.10 1010.28 1009.46 1008.67 1007.94 1007.31 1006.80 1006.43 1006.23 1006.20 1006.34 1006.63 1007.03 1007.51 1008.00 1008.46 1008.84 1009.09 1009.19 1009.13 1008.93 1008.62 1008.24 1007.84 1007.47 1007.17 1006.97 1006.88 1006.89 1006.99 1007.14 1007.32 1007.52 1007.71 1007.91 1008.11 1008.35 1008.63 1008.96 1009.35
1013.56 1012.82 1012.04 1011.23 1010.40 1009.57 1008.78 1008.03 1007.36 1006.79 1006.35 1006.05 1005.91 1005.93 1006.11 1006.43 1006.86 1007.35 1007.86 1008.34 1008.73 1009.01 1009.16 1009.17 1009.07 1008.88 1008.64 1008.39 1008.17 1008.02 1007.94 1007.93 1008.00 1008.11 1008.25 1008.40 1008.56 1008.71 1008.88 1009.06 1009.27 1009.53 1009.83
1013.44 1012.71 1011.96 1011.18 1010.41 1009.63 1008.88 1008.16 1007.49 1006.88 1006.37 1005.98 1005.71 1005.61 1005.66 1005.86 1006.21 1006.66 1007.17 1007.70 1008.19 1008.61 1008.92 1009.10 1009.18 1009.15 1009.05 1008.92 1008.78 1008.68 1008.62 1008.63 1008.69 1008.80 1008.93 1009.09 1009.24 1009.39 1009.55 1009.71 1009.88 1010.07 1010.29
1013.03 1012.35 1011.66 1010.98 1010.29 1009.62 1008.94 1008.28 1007.63 1007.01 1006.44 1005.96 1005.58 1005.34 1005.25 1005.33 1005.57 1005.94 1006.42 1006.95 1007.50 1008.00 1008.43 1008.75 1008.97 1009.07 1009.10 1009.07 1009.02 1008.97 1008.97 1009.00 1009.09 1009.22 1009.38 1009.57 1009.75 1009.93 1010.11 1010.27 1010.42 1010.58 1010.74
1012.41 1011.80 1011.20 1010.63 1010.06 1009.49 1008.91 1008.31 1007.70 1007.08 1006.47 1005.91 1005.43 1005.06 1004.84 1004.79 1004.92 1005.21 1005.63 1006.14 1006.71 1007.27 1007.78 1008.20 1008.53 1008.75 1008.88 1008.95 1008.98 1009.00 1009.05 1009.14 1009.27 1009.44 1009.65 1009.89 1010.12 1010.35 1010.56 1010.74 1010.91 1011.05 1011.17
1011.68 1011.14 1010.64 1010.17 1009.71 1009.24 1008.75 1008.21 1007.63 1007.01 1006.37 1005.75 1005.18 1004.72 1004.39 1004.23 1004.26 1004.47 1004.84 1005.32 1005.89 1006.48 1007.05 1007.55 1007.97 1008.29 1008.52 1008.68 1008.80 1008.89 1009.01 1009.15 1009.33 1009.56 1009.82 1010.10 1010.39 1010.67 1010.92 1011.14 1011.33 1011.47 1011.59
1010.95 1010.47 1010.05 1009.66 1009.28 1008.88 1008.44 1007.94 1007.38 1006.75 1006.09 1005.43 1004.80 1004.27 1003.86 1003.63 1003.59 1003.74 1004.07 1004.54 1005.11 1005.72 1006.34 1006.91 1007.40 1007.81 1008.14 1008.39 1008.59 1008.76 1008.94 1009.14 1009.37 1009.64 1009.95 1010.27 1010.60 1010.91 1011.21 1011.46 1011.67 1011.84 1011.97
1010.28 1009.85 1009.47 1009.12 1008.77 1008.40 1007.98 1007.49 1006.92 1006.29 1005.61 1004.92 1004.26 1003.69 1003.26 1002.99 1002.91 1003.04 1003.35 1003.82 1004.40 1005.04 1005.70 1006.33 1006.90 1007.40 1007.81 1008.15 1008.43 1008.68 1008.92 1009.17 1009.44 1009.74 1010.07 1010.41 1010.76 1011.09 1011.41 1011.69 1011.93 1012.12 1012.28
1009.71 1009.29 1008.92 1008.57 1008.21 1007.82 1007.38 1006.87 1006.28 1005.63 1004.94 1004.24 1003.58 1003.01 1002.57 1002.31 1002.24 1002.37 1002.69 1003.16 1003.77 1004.44 1005.15 1005.84 1006.48 1007.06 1007.55 1007.97 1008.33 1008.65 1008.94 1009.23 1009.53 1009.84 1010.17 1010.51 1010.86 1011.19 1011.51 1011.80 1012.07 1012.29 1012.48
1009.21 1008.79 1008.39 1008.00 1007.60 1007.16 1006.67 1006.12 1005.50 1004.83 1004.14 1003.45 1002.81 1002.27 1001.86 1001.62 1001.58 1001.73 1002.07 1002.58 1003.20 1003.91 1004.66 1005.40 1006.11 1006.75 1007.32 1007.82 1008.25 1008.63 1008.97 1009.29 1009.60 1009.91 1010.22 1010.55 1010.87 1011.18 1011.49 1011.79 1012.06 1012.31 1012.54
Thickness
5803 5806 5805 5803 5798 5792 5786 5781 5775 5770 5768 5765 5763 5762 5762 5765 5766 5768 5769 5770 5769 5767 5765 5762 5760 5757 5752 5750 5748 5745 5742 5741 5740 5735 5733 5736 5739 5741 5742 5743 5743 5744 5746
5793 5795 5795 5793 5789 5784 5779 5773 5768 5762 5759 5756 5755 5756 5756 5757 5759 5761 5762 5763 5762 5760 5759 5756 5755 5752 5748 5744 5742 5739 5736 5735 5734 5729 5723 5722 5727 5733 5738 5738 5738 5739 5740
5785 5785 5785 5783 5780 5776 5772 5767 5761 5756 5753 5750 5748 5747 5746 5747 5748 5749 5751 5753 5753 5753 5752 5751 5750 5748 5745 5741 5738 5735 5730 5728 5729 5727 5721 5715 5716 5721 5727 5730 5731 5732 5732
5779 5778 5777 5775 5773 5770 5766 5760 5755 5750 5747 5744 5740 5736 5733 5732 5735 5738 5740 5743 5744 5745 5745 5745 5744 5743 5741 5738 5737 5735 5730 5726 5723 5722 5721 5720 5718 5713 5713 5718 5722 5725 5726
5773 5772 5772 5771 5769 5765 5759 5754 5749 5745 5741 5738 5734 5729 5726 5725 5727 5729 5730 5732 5735 5736 5737 5738 5738 5737 5736 5735 5733 5730 5728 5724 5722 5720 5717 5714 5712 5711 5706 5706 5711 5715 5719
5768 5767 5768 5765 5760 5756 5751 5746 5741 5737 5735 5731 5728 5723 5719 5718 5717 5718 5719 5721 5724 5726 5728 5729 5729 5730 5729 5729 5728 5726 5724 5721 5720 5718 5715 5712 5708 5707 5704 5701 5702 5704 5709
5761 5759 5757 5753 5749 5746 5741 5737 5732 5729 5727 5723 5720 5717 5713 5710 5708 5707 5708 5709 5712 5715 5718 5719 5720 5721 5722 5722 5721 5720 5718 5717 5715 5714 5712 5710 5708 5707 5704 5699 5697 5697 5700
5754 5753 5751 5748 5743 5739 5735 5730 5725 5722 5719 5715 5712 5709 5705 5702 5699 5698 5698 5699 5701 5704 5707 5709 5711 5712 5713 5714 5713 5712 5711 5710 5709 5708 5707 5704 5704 5703 5700 5697 5692 5688 5689
5749 5747 5746 5743 5738 5734 5730 5726 5721 5716 5713 5709 5705 5700 5697 5693 5690 5689 5688 5688 5690 5693 5696 5699 5701 5703 5704 5704 5703 5703 5702 5702 5701 5700 5699 5698 5696 5695 5694 5692 5690 5684 5678
5743 5742 5740 5737 5734 5730 5726 5722 5717 5712 5708 5703 5698 5694 5689 5686 5682 5680 5678 5678 5680 5681 5684 5688 5691 5693 5694 5694 5693 5692 5692 5691 5690 5690 5689 5688 5687 5685 5684 5684 5683 5682 5678
5736 5734 5733 5732 5729 5726 5721 5716 5711 5706 5702 5697 5692 5687 5682 5678 5674 5671 5669 5669 5669 5671 5673 5677 5679 5682 5682 5682 5681 5680 5681 5680 5679 5679 5678 5676 5675 5674 5674 5674 5674 5673 5672
5726 5726 5725 5723 5721 5718 5715 5710 5706 5701 5697 5692 5686 5680 5675 5671 5667 5663 5661 5659 5659 5661 5663 5666 5668 5670 5671 5671 5670 5669 5669 5669 5668 5666 5665 5664 5664 5663 5663 5663 5663 5663 5663
5714 5713 5713 5711 5711 5710 5708 5705 5701 5697 5692 5686 5680 5673 5668 5664 5659 5656 5653 5651 5650 5651 5653 5656 5657 5658 5659 5659 5659 5658 5658 5656 5655 5654 5654 5653 5653 5651 5651 5652 5652 5653 5653
5700 5699 5698 5698 5699 5700 5700 5698 5695 5692 5687 5680 5674 5668 5663 5658 5653 5649 5646 5643 5642 5642 5644 5645 5645 5646 5647 5647 5646 5645 5643 5642 5642 5642 5642 5642 5642 5641 5642 5643 5643 5643 5642
5686 5685 5684 5684 5685 5686 5688 5688 5687 5684 5681 5675 5668 5663 5658 5653 5648 5643 5639 5636 5634 5634 5634 5635 5635 5635 5635 5634 5634 5632 5631 5630 5629 5629 5629 5629 5631 5632 5633 5633 5632 5633 5632
5670 5670 5671 5671 5671 5672 5674 5676 5677 5677 5674 5669 5664 5659 5653 5647 5642 5637 5633 5629 5627 5626 5625 5625 5625 5624 5624 5624 5624 5622 5620 5618 5617 5616 5616 5618 5619 5621 5622 5623 5625 5625 5624
5654 5653 5654 5654 5656 5658 5660 5663 5666 5668 5666 5663 5659 5654 5648 5642 5637 5633 5628 5624 5620 5618 5617 5616 5615 5613 5612 5613 5613 5613 5611 5609 5608 5607 5608 5610 5610 5611 5612 5614 5615 5615 5617
5639 5639 5639 5640 5642 5644 5647 5651 5655 5657 5657 5655 5653 5649 5644 5638 5633 5628 5623 5619 5615 5612 5610 5609 5607 5606 5605 5605 5605 5604 5603 5601 5599 5599 5600 5599 5600 5603 5604 5605 5605 5606 5607
5626 5625 5625 5625 5627 5628 5631 5635 5640 5643 5645 5646 5646 5645 5640 5635 5629 5624 5620 5616 5611 5608 5605 5603 5601 5599 5598 5599 5598 5598 5595 5593 5591 5592 5592 5593 5594 5596 5598 5599 5598 5599 5600
5615 5613 5612 5611 5611 5612 5614 5617 5621 5625 5628 5633 5636 5638 5636 5632 5627 5623 5618 5614 5610 5606 5602 5599 5597 5595 5593 5594 5594 5593 5590 5586 5584 5584 5585 5588 5589 5591 5593 5593 5593 5592 5592
5598 5596 5594 5592 5592 5594 5595 5596 5600 5604 5611 5618 5624 5627 5628 5627 5625 5620 5616 5612 5608 5603 5599 5596 5593 5591 5590 5589 5590 5589 5587 5585 5582 5581 5580 5582 5585 5587 5588 5589 5589 5589 5588
5581 5579 5576 5575 5574 5574 5575 5578 5581 5587 5594 5602 5609 5615 5619 5620 5620 5616 5612 5609 5605 5600 5596 5592 5588 5587 5586 5587 5587 5587 5586 5585 5582 5580 5579 5580 5582 5584 5584 5585 5586 5586 5586
5564 5562 5559 5558 5557 5556 5557 5559 5565 5571 5577 5585 5595 5603 5609 5613 5613 5611 5609 5605 5602 5599 5594 5591 5587 5583 5583 5583 5585 5585 5585 5584 5581 5580 5580 5580 5580 5581 5581 5582 5582 5582 5580
5547 5545 5542 5541 5541 5541 5541 5542 5547 5553 5560 5570 5580 5590 5598 5603 5607 5607 5606 5603 5601 5598 5595 5591 5587 5583 5580 5579 5580 5581 5581 5581 5579 5577 5577 5577 5577 5577 5578 5577 5577 5576 5574
5533 5529 5526 5526 5527 5527 5527 5528 5532 5537 5545 5554 5566 5577 5587 5594 5600 5602 5603 5602 5603 5602 5598 5594 5591 5585 5581 5581 5582 5581 5579 5578 5577 5573 5571 5571 5572 5572 5571 5571 5571 5570 5569
5519 5517 5515 5514 5514 5514 5514 5516 5519 5523 5531 5540 5553 5565 5576 5586 5592 5596 5595 5596 5599 5598 5596 5595 5592 5590 5588 5584 5580 5580 5579 5577 5575 5572 5569 5569 5569 5568 5568 5567 5566 5564 5563